Theta_e
284 284 285 286 286 287 288 290 293 294 295 297 298 302 306 316 319 319 317 318 317 313
283 283 283 285 286 286 288 289 291 292 293 295 297 301 304 313 317 317 316 316 316 314
282 283 283 284 284 285 287 288 289 290 291 292 295 298 302 311 317 316 315 315 314 314
281 282 282 283 284 285 286 286 287 288 289 290 292 295 298 303 315 314 314 314 313 310
280 281 281 281 282 283 284 285 286 287 288 288 290 294 295 298 312 312 312 312 311 309
278 279 279 280 281 282 283 284 285 286 286 287 289 291 294 297 302 312 311 311 310 308
276 277 278 279 280 280 281 282 283 285 285 287 288 290 292 294 297 312 311 312 310 309
274 276 277 277 278 279 280 281 283 284 285 286 287 289 292 294 297 306 310 310 310 310
272 274 275 276 276 278 279 280 281 282 283 284 286 288 291 293 294 297 309 309 310 310
271 272 273 274 275 276 278 279 280 281 282 283 285 288 290 291 293 295 308 309 309 308
270 270 271 272 273 275 277 278 279 280 281 282 284 287 289 290 292 293 300 309 309 308
269 268 269 270 271 274 275 277 278 279 280 281 282 286 288 289 290 292 294 309 309 308
268 268 268 270 271 273 275 276 278 279 280 282 282 286 287 289 289 291 293 309 308 304
268 268 269 271 273 273 274 276 277 277 279 281 283 284 288 290 290 290 292 307 307 306
Wind_Speed
10 8 9 11 11 10 10 10 13 12 12 12 12 12 10 11 11 14 11 17 16 13
9 10 10 14 13 10 12 11 13 14 14 14 13 12 12 12 14 12 12 11 14 11
11 11 11 11 14 13 13 14 14 14 13 14 14 12 12 13 13 16 11 11 12 8
11 12 12 11 12 14 13 14 14 14 14 14 15 13 13 15 11 15 16 15 14 13
12 12 12 12 14 15 15 14 15 15 14 14 15 15 13 14 13 11 15 15 15 15
11 12 13 14 14 15 16 15 15 15 15 14 15 15 14 14 18 14 15 15 16 17
10 12 14 15 15 16 16 16 15 15 16 15 15 15 15 14 16 16 16 17 17 18
10 11 13 15 15 16 16 16 16 16 15 16 14 11 14 13 15 19 16 15 16 17
8 10 12 14 15 16 16 16 16 16 16 16 12 22 25 22 16 18 16 17 16 17
8 8 10 14 15 16 15 15 16 16 17 18 16 25 26 26 15 17 16 18 16 14
6 8 10 12 15 15 14 15 15 16 16 17 15 27 27 27 17 17 21 19 18 17
5 8 10 11 13 14 14 14 15 15 17 17 17 26 27 23 13 17 18 17 18 18
7 9 11 12 13 13 14 16 14 16 16 21 19 24 27 23 11 15 13 16 17 24
8 10 11 12 12 12 14 15 16 17 15 17 18 18 26 25 13 12 13 13 13 13
Wind_Direction
322 316 313 307 305 300 301 303 310 303 299 296 306 302 290 277 224 212 209 225 194 185
323 317 311 307 305 300 295 299 298 300 299 296 296 290 285 280 230 213 203 219 220 201
319 317 313 307 303 302 302 298 299 302 299 297 294 293 286 280 234 214 203 204 199 196
319 319 316 311 307 304 301 300 300 300 300 298 293 287 286 292 231 225 205 198 194 188
315 319 318 315 312 308 304 302 299 297 293 291 286 284 286 279 250 219 222 204 194 187
316 318 317 315 314 309 304 302 300 296 292 292 289 289 280 277 287 208 212 208 200 188
314 315 312 313 312 310 307 303 300 297 297 292 286 279 278 287 284 234 211 211 207 198
304 308 308 311 312 310 306 301 298 294 290 290 287 282 283 277 268 270 206 212 211 207
293 302 307 309 310 307 303 300 299 299 295 291 284 287 282 281 288 299 208 210 211 209
288 294 303 305 307 306 304 301 298 296 294 292 287 288 289 289 284 272 249 203 207 204
283 292 298 298 301 303 302 299 296 294 290 290 289 289 289 281 270 272 278 196 198 198
286 291 293 292 295 296 298 296 293 290 289 290 288 288 289 288 278 273 280 201 192 196
290 285 286 287 290 291 289 292 292 291 289 286 288 288 288 285 270 272 275 208 188 194
287 283 281 283 288 291 291 290 292 291 289 287 285 286 286 286 282 269 270 224 187 191